Farmington, NM

6:45 AM MST on November 23, 2017 (GMT -0700)
Four Corners Regional

Weather History for KFMN - October, 2012

Change the Weather History Date:

Friday, October 5, 2012

  Actual Average Record
Temperature  
Mean Temperature 62 °F -  
Max Temperature 78 °F 72 °F 82 °F (1979)
Min Temperature 45 °F 41 °F 32 °F (2013)
Degree Days  
Heating Degree Days 4    
Growing Degree Days 12 (Base 50)    
Moisture  
Dew Point 22 °F    
Average Humidity 19    
Maximum Humidity 37    
Minimum Humidity 4    
Precipitation  
Precipitation 0.00 in - - ()
Sea Level Pressure  
Sea Level Pressure 29.94 in    
Wind  
Wind Speed 9 mph (West)    
Max Wind Speed 20 mph    
Max Gust Speed 28 mph    
Visibility 10 miles    
Events      
Averages and records for this station are not official NWS values.
T = Trace of Precipitation, MM = Missing Value Source: NWS Daily Summary

Daily Weather History Graph

Daily Weather History Graph

Search for Another Location

Airport or City:

Trip Planner

Search our weather history database for the weather conditions in past years. The results will help you decide how hot, cold, wet, or windy it might be!

Date:

Astronomy

Oct. 05, 2012 Rise Set
Actual Time 7:12 AM MDT 6:49 PM MDT
Civil Twilight 6:46 AM MDT 7:15 PM MDT
Nautical Twilight 6:16 AM MDT 7:45 PM MDT
Astronomical Twilight 5:46 AM MDT 8:15 PM MDT
Moon 10:22 PM MDT (10/5) 12:15 PM MDT (10/5)
Length of Visible Light 12h 29m
Length of Day
11h 37m
Waning Gibbous, 73% of the Moon is Illuminated
Oct 5
Waning Gibbous
Oct 8
Last Quarter
Oct 15
New
Oct 21
First Quarter
Oct 29
Full

Hourly Weather History & Observations

Time (MDT) Temp. Dew Point Humidity Pressure Visibility Wind Dir Wind Speed Gust Speed Precip Events Conditions
12:53 AM 63.0 °F 24.1 °F 23% 29.92 in 10.0 mi WSW 13.8 mph - N/A   Clear
1:53 AM 61.0 °F 25.0 °F 25% 29.95 in 10.0 mi WSW 11.5 mph - N/A   Clear
2:53 AM 60.1 °F 25.0 °F 26% 29.95 in 10.0 mi WSW 10.4 mph - N/A   Clear
3:53 AM 57.9 °F 25.0 °F 28% 29.95 in 10.0 mi West 6.9 mph - N/A   Clear
4:53 AM 57.0 °F 26.1 °F 30% 29.96 in 10.0 mi SW 4.6 mph - N/A   Clear
5:53 AM 52.0 °F 25.0 °F 35% 29.97 in 10.0 mi Calm Calm - N/A   Clear
6:53 AM 48.0 °F 23.0 °F 37% 30.01 in 10.0 mi North 6.9 mph - N/A   Clear
7:53 AM 48.0 °F 23.0 °F 37% 30.04 in 10.0 mi NE 4.6 mph - N/A   Clear
9:53 AM 62.1 °F 28.0 °F 28% 30.04 in 10.0 mi Calm Calm - N/A   Clear
10:53 AM 68.0 °F 26.1 °F 21% 30.01 in 10.0 mi WSW 4.6 mph - N/A   Clear
11:53 AM 73.0 °F 25.0 °F 17% 29.98 in 10.0 mi WNW 10.4 mph 21.9 mph N/A   Clear
12:53 PM 75.0 °F 25.0 °F 16% 29.96 in 10.0 mi West 10.4 mph 18.4 mph N/A   Clear
1:53 PM 75.0 °F 23.0 °F 14% 29.93 in 10.0 mi WSW 17.3 mph 25.3 mph N/A   Clear
2:53 PM 75.9 °F 21.9 °F 13% 29.90 in 10.0 mi West 13.8 mph 24.2 mph N/A   Clear
3:53 PM 77.0 °F 19.9 °F 12% 29.88 in 10.0 mi West 13.8 mph 24.2 mph N/A   Clear
4:53 PM 77.0 °F 17.1 °F 10% 29.87 in 10.0 mi WNW 13.8 mph 27.6 mph N/A   Clear
5:53 PM 73.9 °F 15.1 °F 11% 29.89 in 10.0 mi WNW 19.6 mph 26.5 mph N/A   Clear
6:53 PM 71.1 °F 15.1 °F 12% 29.92 in 10.0 mi WNW 11.5 mph 20.7 mph N/A   Clear
7:53 PM 69.1 °F 16.0 °F 13% 29.94 in 10.0 mi WNW 6.9 mph - N/A   Clear
8:53 PM 64.0 °F 18.0 °F 17% 29.93 in 10.0 mi WSW 9.2 mph - N/A   Clear
9:53 PM 64.0 °F 19.9 °F 18% 29.91 in 10.0 mi WSW 8.1 mph - N/A   Clear
10:53 PM 57.9 °F 19.9 °F 23% 29.90 in 10.0 mi Calm Calm - N/A   Clear
11:53 PM 57.0 °F 19.9 °F 24% 29.89 in 10.0 mi North 6.9 mph - N/A   Clear